User: anonymous   Login
Location: Unspecified
(0.0000°N, 0.0000°E)
Time: 08:33:22
(UTC+02:00)
Language:

Coronas F rocket - Orbit

View from above orbital plane
View from above orbital plane
View from above satellite
View from above satellite

Ground track
Ground track

The orbit data is extracted from the following two-line orbital elements,

1 26874U 01032B   15091.49185324  .00028273  00000-0  32122-3 0  9990
2 26874 082.4691 039.3259 0014842 074.4272 285.8623 15.62026517766148
Epoch (UTC): 01 April 2015 11:48:16
Eccentricity: 0.0014842
inclination: 82.4691°
perigee height: 372 km
apogee height: 392 km
right ascension of ascending node: 39.3259°
argument of perigee: 74.4272°
revolutions per day: 15.62026517
mean anomaly at epoch: 285.8623°
orbit number at epoch: 76614

The dashed part of the orbit path shows where the satellite is in the earth's shadow,  

DLR